Location: Goettingen
(51.5300°N, 9.9433°E)
Time: 11:49:28
(UTC+02:00)

ISS - Pass Details

Date: 17 May 2019
Orbit: 407 x 410 km, 51.6° (Epoch: 21 May)

Event Time Altitude Azimuth Distance (km) Brightness Sun altitude
Rises 03:46:08 0° 283° (WNW) 2,339 -0.2 -12.1°
Reaches altitude 10° 03:48:15 10° 278° (W) 1,477 -1.3 -11.9°
Maximum altitude 03:51:29 52° 201° (SSW) 517 -3.7 -11.6°
Drops below altitude 10° 03:54:42 10° 124° (SE) 1,473 -0.9 -11.3°
Sets 03:56:49 0° 120° (ESE) 2,332 0.1 -11.1°
